User: anonymous   Login
Location: Slidell
(30.2789°N, 89.7378°W)
Time: 17:29:00
(UTC-05:00)
Language:

Cosmos 2360 Rocket - Orbit

View from above orbital plane
View from above orbital plane
View from above satellite
View from above satellite

Ground track
Ground track

The orbit data is extracted from the following two-line orbital elements,

1 25407U 98045B   15084.06883756 -.00000198  00000-0 -76507-4 0  9994
2 25407 071.0122 314.3030 0007818 351.6204 008.4787 14.15704318860813
Epoch (UTC): 25 March 2015 01:39:07
Eccentricity: 0.0007818
inclination: 71.0122°
perigee height: 834 km
apogee height: 845 km
right ascension of ascending node: 314.3030°
argument of perigee: 351.6204°
revolutions per day: 14.15704318
mean anomaly at epoch: 8.4787°
orbit number at epoch: 86081

The dashed part of the orbit path shows where the satellite is in the earth's shadow,  

DLR